Regional Weather Roundup
Issued by NWS Cleveland, OH

Home | Current Version | Previous Version | Graphics & Text | Print | Product List | Glossary On
Versions: 1 2 3 4 5 6 7 8 9 10 11 12 13 14 15 16 17 18 19 20 21 22 23 24 25 26 27 28 29 30 31 32 33 34 35 36 37 38 39 40 41 42 43 44 45 46 47 48 49 50
000
ASUS41 KCLE 310000
RWRCLE
OHIO REGIONAL WEATHER ROUNDUP
NATIONAL WEATHER SERVICE WILMINGTON, OH
800 PM EDT MON MAY 30 2016

NOTE: "FAIR" INDICATES FEW OR NO CLOUDS BELOW 12,000 FEET WITH NO
SIGNIFICANT WEATHER AND/OR OBSTRUCTIONS TO VISIBILITY.

OHZ001>008-015>018-024>027-034-035-043-044-310100-
   NORTHWEST OHIO

CITY           SKY/WX    TMP DP  RH WIND       PRES   REMARKS
DEFIANCE       FAIR      83  52  34 NW9       29.96R
FINDLAY        FAIR      83  50  31 NW9       29.95R
TOLEDO EXPRESS FAIR      83  49  30 W8        29.95R
TOLEDO EXEC    FAIR      82  52  35 W6        29.95S
LIMA           FAIR      83  54  36 N5        29.96S
$$

OHZ009>014-019>023-028>033-038-089-310100-
   NORTHEAST OHIO

CITY           SKY/WX    TMP DP  RH WIND       PRES   REMARKS
CLE-HOPKINS    FAIR      79  55  43 NE6       29.98S
CLE-LAKEFRONT  FAIR      78  56  46 CALM      29.96S
CUY CO. ARPT   PTCLDY    81  57  44 NE5       29.98S
LORAIN-ELYRIA  FAIR      81  53  37 NW3       29.97S
ASHTABULA      FAIR      76  60  57 CALM      29.99S
AKRON-CANTON   FAIR      78  57  48 N5        29.98S
WOOSTER        NOT AVBL
MANSFIELD      FAIR      79  55  43 SW5       29.98F
YOUNGSTOWN     FAIR      77  54  44 NW6       29.99R
$$

OHZ042-051>053-060>062-070>072-077>081-310100-
  SOUTHWEST OHIO

CITY           SKY/WX    TMP DP  RH WIND       PRES   REMARKS
CINC-COVINGTON FAIR      84  52  33 NW3       29.98S
CINC-LUNKEN    FAIR      82  61  48 CALM      29.96S
HAMILTON       FAIR      83  64  52 CALM      29.97S
DAYTON         NOT AVBL
WRIGHT-PAT AFB NOT AVBL
DAYTON GENERAL FAIR      83  53  35 N3        29.97S
WILMINGTON     FAIR      82  55  39 N5        29.98S
$$

OHZ036-037-039>041-045>050-054>059-063>069-073>076-082>088-310100-
  CENTRAL AND SOUTHEAST OHIO

CITY           SKY/WX    TMP DP  RH WIND       PRES   REMARKS
COLUMBUS       FAIR      80  54  40 N8        29.96S
OSU AIRPORT    FAIR      80  58  46 N3        29.97S
BOLTON FIELD   NOT AVBL
RICKENBACK AFB NOT AVBL
NEWARK         FAIR      83  55  38 NW3       29.96S
MARION         FAIR      81  51  35 NW5       29.97S
LANCASTER      FAIR      81  54  39 N5        29.97S
ZANESVILLE     FAIR      83  57  41 N3        29.97S
NEW PHILLY     MOCLDY    85  54  34 CALM      29.97S
$$




USA.gov is the U.S. government's official web portal to all federal, state and local government web resources and services.